Regional Weather Roundup
Issued by NWS Cleveland, OH

Home | Current Version | Previous Version | Graphics & Text | Print | Product List | Glossary On
Versions: 1 2 3 4 5 6 7 8 9 10 11 12 13 14 15 16 17 18 19 20 21 22 23 24 25 26 27 28 29 30 31 32 33 34 35 36 37 38 39 40 41 42 43 44 45 46 47 48 49 50
000
ASUS41 KCLE 292212
RWRCLE
OHIO REGIONAL WEATHER ROUNDUP
NATIONAL WEATHER SERVICE WILMINGTON, OH
600 PM EDT MON MAY 29 2017

NOTE: "FAIR" INDICATES FEW OR NO CLOUDS BELOW 12,000 FEET WITH NO
SIGNIFICANT WEATHER AND/OR OBSTRUCTIONS TO VISIBILITY.

OHZ001>008-015>018-024>027-034-035-043-044-292300-
   NORTHWEST OHIO

CITY           SKY/WX    TMP DP  RH WIND       PRES   REMARKS
DEFIANCE       PTSUNNY   73  49  42 SW9       29.85S
FINDLAY        FAIR      78  48  34 W10G24    29.86F
TOLEDO EXPRESS LGT RAIN  68  55  63 W6G29     29.85R
TOLEDO EXEC    PTSUNNY   78  48  34 SW14      29.84S
LIMA           FAIR      78  48  34 SW16      29.87F
$$

OHZ009>014-019>023-028>033-038-089-292300-
   NORTHEAST OHIO

CITY           SKY/WX    TMP DP  RH WIND       PRES   REMARKS
CLE-HOPKINS    FAIR      80  49  33 SW20      29.88S
CLE-LAKEFRONT  FAIR      73  55  53 W12       29.85S
CUY CO. ARPT   MOSUNNY   77  52  41 W14       29.88R
LORAIN-ELYRIA  FAIR      77  49  37 W13G25    29.87F
ASHTABULA      LGT RAIN  65  60  84 NW5       29.91R
AKRON-CANTON   PTSUNNY   74  51  44 SW14G28   29.92S
WOOSTER        FAIR      73  54  51 SW13      29.91S
MANSFIELD      FAIR      76  57  51 S12       29.90F
YOUNGSTOWN     PTSUNNY   75  50  41 SW10      29.91R THUNDER
$$

OHZ042-051>053-060>062-070>072-077>081-292300-
  SOUTHWEST OHIO

CITY           SKY/WX    TMP DP  RH WIND       PRES   REMARKS
CINC-COVINGTON PTSUNNY   80  51  36 SW10G20   29.91F
CINC-LUNKEN    FAIR      80  59  48 SW10      29.91F
HAMILTON       FAIR      79  53  40 SW12G18   29.91F
DAYTON         PTSUNNY   77  53  43 SW16G22   29.92S
WRIGHT-PAT AFB PTSUNNY   78  54  43 SW8       29.91S
DAYTON GENERAL FAIR      79  50  36 SW14G20   29.91F
WILMINGTON     FAIR      78  53  41 SW14G22   29.91F
$$

OHZ036-037-039>041-045>050-054>059-063>069-073>076-082>088-292300-
  CENTRAL AND SOUTHEAST OHIO

CITY           SKY/WX    TMP DP  RH WIND       PRES   REMARKS
COLUMBUS       PTSUNNY   79  51  37 SW12      29.90F
OSU AIRPORT    PTSUNNY   77  53  43 SW13      29.90F
BOLTON FIELD   MOSUNNY   79  55  44 SW12      29.92S
RICKENBACK AFB PTSUNNY   77  52  40 SW14G20   29.90F
NEWARK         FAIR      76  55  48 VRB5      29.91S
MARION         FAIR      79  45  29 W15       29.89F
LANCASTER      PTSUNNY   79  54  41 SW14G20   29.93S
ZANESVILLE     PTSUNNY   78  50  37 SW7       29.93S
NEW PHILLY     LGT RAIN  64  61  90 NE3       29.95R
$$




USA.gov is the U.S. government's official web portal to all federal, state and local government web resources and services.